ARG1862 SAEZ-SAWG

Flight info

Callsign ARG1862
Flight time N/A
Altitude 38000
Route GBE1E GBE UZ117 IRAVU IRAVU3R
Aircraft B38M/M-SDE1FGHILORVWXY/HB1

Departure

Time 2026-04-29 19:25
Airport Ezeiza International Airport - Ministro Pistarini (SAEZ)

Arrival

Time N/A
Airport Piloto Civil Norberto Fernández International Airport (SAWG)
Time Latitude Longitude Altitude Speed Heading
2026-04-29 19:02 -34.81304 -58.53708 75 ft 0 kts 246°
2026-04-29 19:11 -34.81303 -58.53703 65 ft 2 kts 246°
2026-04-29 19:12 -34.81299 -58.53695 65 ft 2 kts 246°
2026-04-29 19:12 -34.81295 -58.53682 67 ft 2 kts 246°
2026-04-29 19:12 -34.81290 -58.53669 67 ft 2 kts 246°
2026-04-29 19:12 -34.81287 -58.53659 70 ft 2 kts 246°
2026-04-29 19:13 -34.81280 -58.53641 66 ft 2 kts 246°
2026-04-29 19:13 -34.81275 -58.53627 66 ft 2 kts 246°
2026-04-29 19:13 -34.81270 -58.53613 65 ft 2 kts 246°
2026-04-29 19:13 -34.81261 -58.53597 65 ft 2 kts 216°
2026-04-29 19:14 -34.81247 -58.53591 74 ft 2 kts 181°
2026-04-29 19:14 -34.81237 -58.53591 71 ft 0 kts 170°
2026-04-29 19:17 -34.81247 -58.53590 74 ft 2 kts 174°
2026-04-29 19:17 -34.81270 -58.53587 69 ft 4 kts 176°
2026-04-29 19:18 -34.81309 -58.53588 73 ft 7 kts 182°
2026-04-29 19:18 -34.81343 -58.53592 71 ft 8 kts 188°
2026-04-29 19:18 -34.81431 -58.53614 69 ft 11 kts 194°
2026-04-29 19:18 -34.81510 -58.53649 75 ft 10 kts 207°
2026-04-29 19:19 -34.81575 -58.53701 75 ft 11 kts 227°
2026-04-29 19:19 -34.81638 -58.53765 67 ft 13 kts 197°
2026-04-29 19:19 -34.81723 -58.53737 71 ft 14 kts 152°
2026-04-29 19:19 -34.81807 -58.53686 75 ft 14 kts 155°
2026-04-29 19:20 -34.81888 -58.53626 75 ft 13 kts 134°
2026-04-29 19:20 -34.81925 -58.53520 68 ft 15 kts 104°
2026-04-29 19:20 -34.81951 -58.53395 72 ft 16 kts 103°
2026-04-29 19:20 -34.81978 -58.53255 72 ft 18 kts 103°
2026-04-29 19:21 -34.82008 -58.53102 71 ft 19 kts 103°
2026-04-29 19:21 -34.82041 -58.52938 68 ft 21 kts 103°
2026-04-29 19:21 -34.82078 -58.52764 75 ft 22 kts 103°
2026-04-29 19:21 -34.82114 -58.52579 71 ft 23 kts 103°
2026-04-29 19:22 -34.82139 -58.52453 67 ft 22 kts 103°
2026-04-29 19:22 -34.82185 -58.52221 72 ft 21 kts 104°
2026-04-29 19:22 -34.82221 -58.52044 75 ft 22 kts 103°
2026-04-29 19:22 -34.82257 -58.51862 69 ft 16 kts 104°
2026-04-29 19:23 -34.82311 -58.51781 68 ft 13 kts 179°
2026-04-29 19:23 -34.82407 -58.51805 74 ft 15 kts 193°
2026-04-29 19:23 -34.82504 -58.51830 66 ft 12 kts 187°
2026-04-29 19:23 -34.82535 -58.51885 73 ft 7 kts 285°
2026-04-29 19:24 -34.82506 -58.52017 73 ft 41 kts 284°
2026-04-29 19:24 -34.82395 -58.52624 72 ft 104 kts 282°
2026-04-29 19:24 -34.82203 -58.53681 76 ft 153 kts 282°
2026-04-29 19:24 -34.81950 -58.55017 483 ft 166 kts 282°
2026-04-29 19:25 -34.81685 -58.56439 1065 ft 180 kts 280°
2026-04-29 19:25 -34.81418 -58.57967 1817 ft 185 kts 281°
2026-04-29 19:25 -34.81130 -58.59548 2448 ft 201 kts 279°
2026-04-29 19:25 -34.81077 -58.61273 3035 ft 210 kts 258°
2026-04-29 19:26 -34.81689 -58.62905 3722 ft 220 kts 233°
2026-04-29 19:26 -34.82784 -58.64273 4457 ft 229 kts 225°
2026-04-29 19:26 -34.83964 -58.65622 5182 ft 236 kts 225°
2026-04-29 19:26 -34.85151 -58.67015 5971 ft 239 kts 226°
2026-04-29 19:27 -34.86350 -58.68438 6715 ft 243 kts 227°
2026-04-29 19:27 -34.87556 -58.69908 7428 ft 247 kts 227°
2026-04-29 19:27 -34.88892 -58.71240 8202 ft 253 kts 211°
2026-04-29 19:27 -34.90661 -58.71661 8826 ft 274 kts 178°
2026-04-29 19:28 -34.92466 -58.70723 9537 ft 298 kts 147°
2026-04-29 19:28 -34.93844 -58.68790 10348 ft 303 kts 131°
2026-04-29 19:28 -34.95036 -58.66694 11073 ft 306 kts 130°
2026-04-29 19:28 -34.96256 -58.64541 11777 ft 310 kts 130°
2026-04-29 19:29 -34.97534 -58.62404 12464 ft 313 kts 137°
2026-04-29 19:29 -34.99273 -58.60852 12807 ft 311 kts 167°
2026-04-29 19:29 -35.01389 -58.60537 13110 ft 309 kts 195°
2026-04-29 19:29 -35.03424 -58.61414 13394 ft 318 kts 209°
2026-04-29 19:30 -35.05570 -58.62351 13775 ft 335 kts 203°
2026-04-29 19:30 -35.07851 -58.63162 14261 ft 344 kts 201°
2026-04-29 19:30 -35.10176 -58.63898 14981 ft 347 kts 200°
2026-04-29 19:30 -35.12546 -58.64597 15633 ft 352 kts 199°
2026-04-29 19:31 -35.14941 -58.65276 16312 ft 355 kts 199°
2026-04-29 19:31 -35.17362 -58.65948 16955 ft 359 kts 199°
2026-04-29 19:31 -35.19784 -58.66609 17595 ft 362 kts 199°
2026-04-29 19:31 -35.22260 -58.67280 18227 ft 366 kts 199°
2026-04-29 19:32 -35.24759 -58.67956 18762 ft 369 kts 199°
2026-04-29 19:32 -35.27280 -58.68639 19312 ft 372 kts 199°
2026-04-29 19:32 -35.29818 -58.69326 19862 ft 375 kts 199°
2026-04-29 19:32 -35.32373 -58.70018 20404 ft 378 kts 199°
2026-04-29 19:33 -35.34947 -58.70716 20949 ft 380 kts 199°
2026-04-29 19:33 -35.37539 -58.71420 21474 ft 383 kts 199°
2026-04-29 19:33 -35.40151 -58.72129 21988 ft 386 kts 199°
2026-04-29 19:33 -35.42785 -58.72845 22520 ft 388 kts 199°
2026-04-29 19:34 -35.45441 -58.73568 23029 ft 391 kts 199°
2026-04-29 19:34 -35.48109 -58.74293 23509 ft 394 kts 199°
2026-04-29 19:34 -35.50796 -58.75025 23923 ft 397 kts 199°
2026-04-29 19:34 -35.53506 -58.75763 24350 ft 399 kts 199°
2026-04-29 19:35 -35.56226 -58.76506 24773 ft 401 kts 199°
2026-04-29 19:35 -35.58953 -58.77250 25183 ft 403 kts 199°
2026-04-29 19:35 -35.61696 -58.78000 25586 ft 405 kts 199°
2026-04-29 19:35 -35.64454 -58.78754 25990 ft 407 kts 199°
2026-04-29 19:36 -35.67193 -58.79504 26370 ft 409 kts 199°
2026-04-29 19:36 -35.69977 -58.80267 26779 ft 411 kts 199°
2026-04-29 19:36 -35.72776 -58.81034 27150 ft 413 kts 199°
2026-04-29 19:36 -35.75592 -58.81806 27529 ft 415 kts 200°
2026-04-29 19:37 -35.78421 -58.82583 27898 ft 417 kts 200°
2026-04-29 19:37 -35.80295 -58.83097 28136 ft 418 kts 200°
2026-04-29 19:37 -35.84106 -58.84145 28611 ft 421 kts 200°
2026-04-29 19:37 -35.86972 -58.84933 28963 ft 423 kts 200°
2026-04-29 19:38 -35.89849 -58.85726 29310 ft 425 kts 200°
2026-04-29 19:38 -35.92732 -58.86543 29639 ft 424 kts 203°
2026-04-29 19:38 -35.95450 -58.87856 29942 ft 419 kts 209°
2026-04-29 19:38 -35.98167 -58.89199 30214 ft 422 kts 208°
2026-04-29 19:39 -36.00908 -58.90503 30617 ft 421 kts 207°
2026-04-29 19:39 -36.03643 -58.91785 31038 ft 419 kts 207°
2026-04-29 19:39 -36.06364 -58.93051 31449 ft 417 kts 207°
2026-04-29 19:39 -36.09045 -58.94295 31852 ft 415 kts 207°
2026-04-29 19:40 -36.11743 -58.95547 32258 ft 414 kts 207°
2026-04-29 19:40 -36.14434 -58.96796 32663 ft 412 kts 207°
2026-04-29 19:40 -36.17109 -58.98038 33055 ft 410 kts 207°
2026-04-29 19:40 -36.19773 -58.99276 33448 ft 408 kts 207°
2026-04-29 19:41 -36.22431 -59.00514 33830 ft 407 kts 207°
2026-04-29 19:41 -36.25076 -59.01745 34137 ft 406 kts 207°
2026-04-29 19:41 -36.27716 -59.02974 34386 ft 406 kts 207°
2026-04-29 19:41 -36.30368 -59.04210 34620 ft 406 kts 207°
2026-04-29 19:42 -36.33018 -59.05447 34857 ft 407 kts 207°
2026-04-29 19:42 -36.34809 -59.06283 35007 ft 407 kts 207°
2026-04-29 19:42 -36.38319 -59.07922 35319 ft 407 kts 207°
2026-04-29 19:42 -36.40977 -59.09164 35544 ft 408 kts 207°
2026-04-29 19:43 -36.43628 -59.10404 35761 ft 408 kts 207°
2026-04-29 19:43 -36.46285 -59.11648 35969 ft 408 kts 207°
2026-04-29 19:43 -36.48945 -59.12895 36170 ft 409 kts 207°
2026-04-29 19:43 -36.51610 -59.14144 36375 ft 409 kts 207°
2026-04-29 19:44 -36.54276 -59.15396 36572 ft 409 kts 207°
2026-04-29 19:44 -36.56937 -59.16645 36765 ft 409 kts 207°
2026-04-29 19:44 -36.59607 -59.17900 36959 ft 410 kts 207°
2026-04-29 19:44 -36.62271 -59.19152 37137 ft 410 kts 207°
2026-04-29 19:45 -36.64945 -59.20410 37318 ft 410 kts 207°
2026-04-29 19:45 -36.67580 -59.21651 37492 ft 410 kts 207°
2026-04-29 19:45 -36.70251 -59.22911 37664 ft 410 kts 207°
2026-04-29 19:45 -36.72921 -59.24169 37830 ft 410 kts 207°